This demonstration page uses our WeatherBlox Daily Observations layout. Learn more.

Left ArrowRight Arrow

41.86663, -103.66717

Hourly Observations for June 20, 2016

Temp ( °F °C ) Dew Point ( °F °C ) Humidity (%) Winds ( mph kmh ) Pressure ( in mb ) Visibility ( mi km ) Precip ( " mm )
12:53 am 00:53 Clear 68 20 60 15.6 76 76 NE 3 6 30.05 1018 10 16 0.00 0.00
1:53 am 01:53 Clear 68 20 60 15.6 76 76 NE 3 6 30.06 1018 10 16 0.00 0.00
2:53 am 02:53 Clear 68 20 60 15.6 76 76 ENE 6 9 30.07 1018 10 16 0.00 0.00
3:53 am 03:53 Clear 70 21.1 61 16.1 73 73 NE 20 31 30.07 1018 10 16 0.00 0.00
4:53 am 04:53 Clear 67 19.4 53 11.7 61 61 NE 28 44 30.10 1019 10 16 0.00 0.00
5:53 am 05:53 Mostly Cloudy 66 18.9 46 7.8 49 49 NE 25 41 30.14 1021 10 16 0.00 0.00
6:53 am 06:53 Cloudy 67 19.4 41 5 39 39 NE 21 33 30.18 1022 10 16 0.00 0.00
7:53 am 07:53 Cloudy 67 19.4 40 4.4 37 37 ENE 18 30 30.24 1024 10 16 0.00 0.00
8:53 am 08:53 Mostly Cloudy 71 21.7 40 4.4 32 32 ENE 15 24 30.26 1025 10 16 0.00 0.00
9:53 am 09:53 Mostly Sunny 73 22.8 38 3.3 28 28 ENE 15 24 30.27 1025 10 16 0.00 0.00
10:53 am 10:53 Mostly Sunny 76 24.4 38 3.3 25 25 E 12 19 30.27 1025 10 16 0.00 0.00
11:53 am 11:53 Sunny 77 25 40 4.4 26 26 ESE 13 20 30.26 1025 10 16 0.00 0.00
12:53 pm 12:53 Sunny 79 26.1 42 5.6 27 27 ESE 14 22 30.24 1024 10 16 0.00 0.00
1:53 pm 13:53 Sunny 79 26.1 45 7.2 30 30 SSE 12 19 30.22 1023 10 16 0.00 0.00
2:53 pm 14:53 Sunny 81 27.2 48 8.9 32 32 SE 14 22 30.19 1022 10 16 0.00 0.00
3:53 pm 15:53 Sunny 83 28.3 47 8.3 28 28 ESE 13 20 30.15 1021 10 16 0.00 0.00
4:53 pm 16:53 Sunny 83 28.3 48 8.9 30 30 ESE 12 19 30.13 1020 10 16 0.00 0.00
5:53 pm 17:53 Sunny 82 27.8 49 9.4 32 32 SE 12 19 30.11 1020 10 16 0.00 0.00
6:53 pm 18:53 Sunny 81 27.2 49 9.4 33 33 ESE 14 22 30.09 1019 10 16 0.00 0.00
7:53 pm 19:53 Sunny 78 25.6 51 10.6 39 39 ESE 10 17 30.10 1019 10 16 0.00 0.00
8:53 pm 20:53 Clear 72 22.2 52 11.1 50 50 ESE 9 15 30.11 1020 10 16 0.00 0.00
9:53 pm 21:53 Clear 70 21.1 52 11.1 53 53 ESE 10 17 30.11 1020 10 16 0.00 0.00
10:53 pm 22:53 Clear 68 20 53 11.7 59 59 ESE 10 17 30.10 1019 10 16 0.00 0.00
11:53 pm 23:53 Clear 65 18.3 54 12.2 68 68 ESE 8 13 30.09 1019 10 16 0.00 0.00

Powered by AerisWeather